Location: Oklahoma City
(35.4680°N, 97.5160°W)
Time: 19:34:38
(UTC-05:00)

ISS - All Passes

Search period start: 28 July 2014 00:00
Search period end: 07 August 2014 00:00
Orbit: 411 x 420 km, 51.6° (Epoch: 28 July)

Date Brightness Start Highest point End Pass type
(mag) Time Alt. Az. Time Alt. Az. Time Alt. Az.
28 Jul - 00:14:46 10° SW 00:18:04 69° SE 00:21:24 10° NE night (unlit)
28 Jul - 01:53:03 10° WNW 01:55:06 15° NNW 01:57:09 10° N visible
28 Jul - 06:46:20 10° NNW 06:49:08 24° NNE 06:51:55 10° E daylight
28 Jul - 08:22:50 10° WNW 08:25:52 31° SW 08:28:52 10° SSE daylight
28 Jul - 23:26:18 10° SSW 23:29:21 34° SE 23:32:24 10° ENE night (unlit)
29 Jul - 01:03:24 10° W 01:06:06 22° NNW 01:08:50 10° NNE night (unlit)
29 Jul - 05:57:59 10° NNW 06:00:08 16° NNE 06:02:18 10° ENE visible
29 Jul - 07:33:48 10° NW 07:37:08 64° SW 07:40:27 10° SE daylight
29 Jul - 22:38:21 10° S 22:40:41 18° SE 22:43:01 10° E night (unlit)
30 Jul - 00:14:04 10° WSW 00:17:11 36° NW 00:20:19 10° NNE night (unlit)
30 Jul - 05:10:00 10° N 05:11:05 11° NNE 05:12:09 10° NE visible
30 Jul - 06:45:00 10° NW 06:48:21 65° NE 06:51:40 10° ESE daylight
30 Jul - 23:25:01 10° SW 23:28:19 68° NW 23:31:39 10° NE night (unlit)
31 Jul - 01:04:24 10° NW 01:05:34 11° NNW 01:06:44 10° N visible
31 Jul - 05:56:21 10° NNW 05:59:29 35° NE 06:02:35 10° ESE visible
31 Jul - 07:33:33 10° W 07:36:00 19° SW 07:38:27 10° S daylight
31 Jul - 22:36:15 10° SW 22:39:31 60° SE 22:42:49 10° NE night (unlit)
01 Aug - 00:14:19 10° WNW 00:16:30 16° NNW 00:18:42 10° NNE night (unlit)
01 Aug - 05:07:50 10° NNW 05:10:32 22° NNE 05:13:13 10° E visible
01 Aug - 06:44:12 10° WNW 06:47:19 36° SW 06:50:25 10° SSE daylight
01 Aug - 21:47:51 10° SSW 21:50:47 30° SE 21:53:45 10° ENE visible
01 Aug - 23:24:42 10° W 23:27:30 24° NNW 23:30:19 10° NNE visible
02 Aug - 04:19:31 10° N 04:21:31 15° NNE 04:23:30 10° ENE visible
02 Aug - 05:55:12 10° NW 05:58:34 74° SW 06:01:54 10° SE visible
02 Aug - 21:00:02 10° SSE 21:02:07 16° SE 21:04:13 10° E visible
02 Aug - 22:35:24 10° WSW 22:38:34 40° NW 22:41:45 10° NE visible
03 Aug - 03:31:45 10° N 03:32:25 10° NNE 03:33:05 10° NE visible
03 Aug - 05:06:25 10° NW 05:09:44 57° NE 05:13:02 10° ESE visible
03 Aug - 06:44:53 10° WSW 06:46:04 11° SW 06:47:13 10° SSW daylight
03 Aug - 21:46:23 10° SW 21:49:42 78° NW 21:53:02 10° NE visible
03 Aug - 23:25:28 10° NW 23:26:53 12° NNW 23:28:19 10° N visible
04 Aug - 04:17:46 10° NNW 04:20:50 31° NE 04:23:52 10° E visible
04 Aug - 05:54:46 10° WNW 05:57:24 22° SW 06:00:02 10° S visible
04 Aug - 20:57:40 10° SSW 21:00:54 51° SE 21:04:09 10° ENE visible
04 Aug - 22:35:30 10° WNW 22:37:49 17° NNW 22:40:09 10° NNE visible
05 Aug - 03:29:17 10° NNW 03:31:51 20° NNE 03:34:25 10° E night (unlit)
05 Aug - 05:05:30 10° WNW 05:08:41 41° SW 05:11:51 10° SSE visible
05 Aug - 20:09:21 10° S 20:12:09 26° SE 20:14:59 10° ENE daylight
05 Aug - 21:45:56 10° W 21:48:48 27° NW 21:51:42 10° NNE visible
06 Aug - 02:40:59 10° N 02:42:47 14° NNE 02:44:36 10° ENE night (unlit)
06 Aug - 04:16:32 10° NW 04:19:54 84° SW 04:23:14 10° SE night (unlit)
06 Aug - 19:21:41 10° SSE 19:23:28 14° SE 19:25:16 10° E daylight
06 Aug - 20:56:40 10° WSW 20:59:52 46° NW 21:03:06 10° NE visible
